TimePST,TemperatureF,Dew PointF,Humidity,Sea Level PressureIn,VisibilityMPH,Wind Direction,Wind SpeedMPH,Gust SpeedMPH,PrecipitationIn,Events,Conditions,WindDirDegrees,DateUTC
12:15 AM,39.2,39.2,100,30.17,9.0,NNE,4.6,-,0.00,,Overcast,30,2012-12-29 08:15:00
12:35 AM,37.4,37.4,100,30.17,10.0,NE,3.5,-,0.00,,Overcast,50,2012-12-29 08:35:00
12:55 AM,37.4,37.4,100,30.17,10.0,Calm,Calm,-,0.00,,Overcast,0,2012-12-29 08:55:00
1:15 AM,39.2,39.2,100,30.18,10.0,NNW,3.5,-,0.00,,Overcast,330,2012-12-29 09:15:00
1:35 AM,39.2,39.2,100,30.18,9.0,Calm,Calm,-,0.00,,Overcast,0,2012-12-29 09:35:00
1:55 AM,39.2,39.2,100,30.18,7.0,Calm,Calm,-,0.00,,Overcast,0,2012-12-29 09:55:00
2:15 AM,39.2,39.2,100,30.18,7.0,Calm,Calm,-,0.00,,Overcast,0,2012-12-29 10:15:00
2:35 AM,39.2,39.2,100,30.19,7.0,Calm,Calm,-,0.00,,Overcast,0,2012-12-29 10:35:00
2:55 AM,39.2,39.2,100,30.19,8.0,NE,5.8,-,0.00,,Overcast,50,2012-12-29 10:55:00
3:15 AM,39.2,39.2,100,30.19,8.0,Calm,Calm,-,0.00,,Overcast,0,2012-12-29 11:15:00
3:35 AM,39.2,39.2,100,30.19,8.0,ENE,3.5,-,0.00,,Overcast,70,2012-12-29 11:35:00
3:55 AM,39.2,39.2,100,30.19,7.0,Calm,Calm,-,0.00,,Overcast,0,2012-12-29 11:55:00
4:15 AM,39.2,39.2,100,30.18,7.0,Calm,Calm,-,0.00,,Overcast,0,2012-12-29 12:15:00
4:35 AM,39.2,39.2,100,30.18,7.0,Calm,Calm,-,0.00,,Overcast,0,2012-12-29 12:35:00
4:55 AM,39.2,39.2,100,30.18,5.0,East,3.5,-,0.00,,Overcast,80,2012-12-29 12:55:00
5:15 AM,39.2,39.2,100,30.18,5.0,East,3.5,-,0.00,,Overcast,100,2012-12-29 13:15:00
5:35 AM,39.2,39.2,100,30.19,7.0,Calm,Calm,-,0.00,,Overcast,0,2012-12-29 13:35:00
5:55 AM,39.2,39.2,100,30.19,8.0,Calm,Calm,-,0.00,,Overcast,0,2012-12-29 13:55:00
6:35 AM,39.2,39.2,100,30.19,5.0,Calm,Calm,-,0.01,,Overcast,0,2012-12-29 14:35:00
6:55 AM,37.4,37.4,100,30.19,5.0,Calm,Calm,-,0.02,,Overcast,0,2012-12-29 14:55:00
7:15 AM,37.4,37.4,100,30.18,6.0,Calm,Calm,-,0.01,,Overcast,0,2012-12-29 15:15:00
7:35 AM,37.4,37.4,100,30.19,6.0,ESE,3.5,-,0.01,,Overcast,120,2012-12-29 15:35:00
7:55 AM,39.2,39.2,100,30.18,7.0,ESE,4.6,-,0.01,,Overcast,120,2012-12-29 15:55:00
8:15 AM,39.2,39.2,100,30.18,5.0,East,4.6,-,0.00,,Overcast,90,2012-12-29 16:15:00
8:35 AM,39.2,39.2,100,30.19,6.0,East,3.5,-,0.03,,Overcast,90,2012-12-29 16:35:00
8:55 AM,39.2,39.2,100,30.20,4.0,Calm,Calm,-,0.04,,Overcast,0,2012-12-29 16:55:00
9:15 AM,39.2,39.2,100,30.20,2.5,Calm,Calm,-,0.01,,Overcast,0,2012-12-29 17:15:00
9:55 AM,39.2,39.2,100,30.21,3.0,ESE,3.5,-,0.04,,Overcast,110,2012-12-29 17:55:00
10:15 AM,39.2,39.2,100,30.21,5.0,ESE,3.5,-,0.00,,Overcast,110,2012-12-29 18:15:00
10:35 AM,39.2,39.2,100,30.20,3.0,ESE,4.6,-,0.00,,Overcast,110,2012-12-29 18:35:00
10:55 AM,39.2,39.2,100,30.20,4.0,East,4.6,-,0.00,,Overcast,100,2012-12-29 18:55:00
11:15 AM,39.2,39.2,100,30.19,3.0,East,4.6,-,0.00,,Overcast,90,2012-12-29 19:15:00
11:35 AM,39.2,39.2,100,30.19,2.0,East,3.5,-,0.01,,Overcast,100,2012-12-29 19:35:00
12:15 PM,39.2,39.2,100,30.19,1.0,Calm,Calm,-,0.00,,Overcast,0,2012-12-29 20:15:00
12:35 PM,39.2,39.2,100,30.18,1.2,ENE,3.5,-,0.01,,Overcast,60,2012-12-29 20:35:00
12:55 PM,39.2,39.2,100,30.18,1.8,Calm,Calm,-,0.01,,Overcast,0,2012-12-29 20:55:00
1:15 PM,39.2,39.2,100,30.17,1.5,East,3.5,-,0.00,,Overcast,80,2012-12-29 21:15:00
1:35 PM,39.2,39.2,100,30.17,1.5,Calm,Calm,-,0.00,,Overcast,0,2012-12-29 21:35:00
1:55 PM,39.2,39.2,100,30.17,3.0,SSW,3.5,-,0.00,,Overcast,200,2012-12-29 21:55:00
2:15 PM,39.2,39.2,100,30.17,6.0,Calm,Calm,-,0.00,,Overcast,0,2012-12-29 22:15:00
2:35 PM,39.2,39.2,100,30.17,3.0,Calm,Calm,-,0.01,,Overcast,0,2012-12-29 22:35:00
2:55 PM,39.2,39.2,100,30.17,2.5,Calm,Calm,-,0.01,,Overcast,0,2012-12-29 22:55:00
3:15 PM,39.2,39.2,100,30.17,5.0,Calm,Calm,-,0.00,,Overcast,0,2012-12-29 23:15:00
3:35 PM,39.2,39.2,100,30.17,7.0,Calm,Calm,-,0.00,,Overcast,0,2012-12-29 23:35:00
3:55 PM,39.2,39.2,100,30.17,7.0,Calm,Calm,-,0.00,,Overcast,0,2012-12-29 23:55:00
4:15 PM,39.2,39.2,100,30.18,6.0,Calm,Calm,-,0.00,,Overcast,0,2012-12-30 00:15:00
4:35 PM,39.2,39.2,100,30.18,5.0,Calm,Calm,-,0.00,,Overcast,0,2012-12-30 00:35:00
4:55 PM,39.2,39.2,100,30.18,6.0,Calm,Calm,-,0.00,,Overcast,0,2012-12-30 00:55:00
5:15 PM,39.2,39.2,100,30.19,7.0,Calm,Calm,-,0.00,,Overcast,0,2012-12-30 01:15:00
5:35 PM,39.2,39.2,100,30.18,5.0,SW,3.5,-,0.00,,Overcast,230,2012-12-30 01:35:00
5:55 PM,39.2,39.2,100,30.18,5.0,SW,3.5,-,0.00,,Overcast,230,2012-12-30 01:55:00
6:15 PM,39.2,39.2,100,30.18,5.0,Calm,Calm,-,0.00,,Overcast,0,2012-12-30 02:15:00
6:35 PM,39.2,39.2,100,30.19,4.0,Calm,Calm,-,0.00,,Overcast,0,2012-12-30 02:35:00
6:55 PM,39.2,39.2,100,30.19,5.0,Calm,Calm,-,0.00,,Overcast,0,2012-12-30 02:55:00
7:15 PM,39.2,39.2,100,30.20,3.0,Calm,Calm,-,0.00,,Overcast,0,2012-12-30 03:15:00
7:35 PM,39.2,39.2,100,30.20,2.5,Calm,Calm,-,0.00,,Overcast,0,2012-12-30 03:35:00
7:55 PM,39.2,39.2,100,30.20,3.0,Calm,Calm,-,0.00,,Overcast,0,2012-12-30 03:55:00
8:15 PM,39.2,39.2,100,30.20,4.0,NW,3.5,-,0.00,,Overcast,310,2012-12-30 04:15:00
8:35 PM,39.2,39.2,100,30.20,5.0,NW,4.6,-,0.00,,Overcast,320,2012-12-30 04:35:00
8:55 PM,39.2,39.2,100,30.21,7.0,NNW,5.8,-,0.00,,Overcast,340,2012-12-30 04:55:00
9:15 PM,39.2,39.2,100,30.22,8.0,NNW,6.9,-,0.00,,Overcast,330,2012-12-30 05:15:00
9:35 PM,39.2,39.2,100,30.22,10.0,NNW,5.8,-,0.00,,Overcast,340,2012-12-30 05:35:00
10:15 PM,39.2,39.2,100,30.23,9.0,NW,6.9,-,0.00,,Overcast,320,2012-12-30 06:15:00
10:35 PM,39.2,39.2,100,30.23,10.0,Calm,Calm,-,0.00,,Overcast,0,2012-12-30 06:35:00
10:55 PM,39.2,39.2,100,30.24,9.0,Calm,Calm,-,0.00,,Overcast,0,2012-12-30 06:55:00
11:15 PM,37.4,37.4,100,30.24,9.0,Calm,Calm,-,0.00,,Overcast,0,2012-12-30 07:15:00
11:35 PM,37.4,37.4,100,30.24,6.0,Calm,Calm,-,0.00,,Overcast,0,2012-12-30 07:35:00